Коджори

Грузия     41°39′43″N   44°42′26″E
темп.,
°C
ветер,
м/с
пор.,
м/с
влажн.,
%
обл.,
%
осадки,
мм/ч
давл.,
гПа
погр.,
м
17 апреля, сб
сб1701:00+13ссз115341 0.0 102014
04:00+12ссз115977 0.0 102032
07:00+11сз116188 0.0 102125
10:00+17в114393 0.0 1020616
13:00+20юв223749 0.0 10181415
16:00+22юв223445 0.0 10161448
19:00+20ю214290 0.0 1016461
22:00+13ссз5974100 0.1 1020372
18 апреля, вс
вс1801:00+12ссз3579100 0.3 1020232
04:00+12ссз247985 0.4 1019182
07:00+12сз2380100 0.0 1019112
10:00+17с116033 0.0 1019486
13:00+22в114199 0.0 10171225
16:00+21юв114697 0.4 1015905
19:00+17ссз256543 0.7 1016477
22:00+15сз2473100 0.9 1018444
19 апреля, пн
пн1901:00+14сз2481100 0.0 1019161
04:00+13сз2484100 0.0 1018181
07:00+12сз248396 0.0 1019166
10:00+17ссз2360100 0.0 1018536
13:00+22с1243100 0.2 10161178
16:00+23ссз2439100 0.4 10151720
19:00+22в014432 0.1 101569
22:00+18юз1158100 0.1 101618
20 апреля, вт
вт2001:00+16юв0163100 0.0 101612
04:00+16ссв1164100 0.0 101511
07:00+15ююв2370100 0.0 101598
10:00+19юв2358100 0.0 1014521
13:00+21ююв3452100 0.1 1012957
16:00+20юв2355100 0.4 1011633
19:00+18ю23729 0.8 1009197
22:00+16зсз238389 1.6 101267
21 апреля, ср
ср2101:00+13сз5893100 0.5 1014358
04:00+11ссз51092100 0.7 1015427
07:00+11сз4892100 0.4 1015382
10:00+14сз567996 0.8 1014447
13:00+18с33681 1.4 1012486
16:00+16ссз358098 6.5 1013444
19:00+13сз4586100 1.8 1016337
22:00+11сз3692100 3.4 1018335